Regional Weather Roundup
Issued by NWS Newport/Morehead, NC

Current Version | Previous Version | Text Only | Print | Product List | Glossary On
Versions: 1 2 3 4 5 6 7 8 9 10 11 12 13 14 15 16 17 18 19 20 21 22 23 24 25 26 27 28 29 30 31 32 33 34 35 36 37 38 39 40 41 42 43 44 45 46 47 48 49 50
238
ASUS42 KMHX 152213
RWRMHX
WEATHER ROUNDUP FOR EASTERN NORTH CAROLINA
NATIONAL WEATHER SERVICE NEWPORT/MOREHEAD CITY NC
500 PM EST FRI DEC 15 2017

NOTE: "FAIR" INDICATES FEW OR NO CLOUDS BELOW 12,000 FEET
WITH NO SIGNIFICANT WEATHER AND/OR OBSTRUCTIONS TO VISIBILITY

NCZ015>017-031-032-045>047-102-103-152300-
NORTH COAST

CITY           SKY/WX    TMP DP  RH WIND       PRES   REMARKS
EDENTON        CLOUDY    48  34  58 NW12G18   29.92R
ELIZABETH CITY PTCLDY    47  36  65 W14G25    29.89R
KITTY HAWK     PTCLDY    51  38  61 W13G22    29.86R
MANTEO         CLOUDY    53  38  56 NW12G17   29.88R

$$

NCZ045>047-081-094-103-104-152300-
CENTRAL COAST

CITY           SKY/WX    TMP DP  RH WIND       PRES   REMARKS
FRISCO         CLOUDY    57  43  59 W12G21    29.89R

$$

NCZ095-097-098-100-101-152300-
SOUTHERN COAST

CITY           SKY/WX    TMP DP  RH WIND       PRES   REMARKS
BEAUFORT       CLOUDY    55  47  74 SW10      29.91R
CEDAR ISLAND   NOT AVBL
JACKSONVILLE   PTCLDY    56  38  50 SW5       29.91R
PINEY ISLAND     N/A    N/A N/A N/A SW8       29.90R
WILMINGTON     CLOUDY    56  42  59 SW6       29.92R


$$

NCZ011>013-027>030-043-044-078>080-089-090>093-098-152300-
COASTAL PLAIN

CITY           SKY/WX    TMP DP  RH WIND       PRES   REMARKS
AHOSKIE        CLOUDY    40  28  63 CALM      29.94R
CLINTON        CLOUDY    53  38  57 NW7       29.93S
ELIZABETHTOWN  NOT AVBL
GOLDSBORO      CLOUDY    49  33  55 NW9       29.92R
GREENVILLE     CLOUDY    46  32  57 NW6       29.95R
HAVELOCK       PTCLDY    54  41  61 SW8       29.91R
KENANSVILLE    CLOUDY    54  36  50 NW8       29.92S
KINSTON        CLOUDY    50  36  57 NW10      29.93R
NEW BERN       CLOUDY    53  39  59 CALM      29.90R
RICHLANDS      CLOUDY    55  37  50 SW6       29.92R
ROCKY MOUNT    CLOUDY    42  30  62 NW8       29.95S
WASHINGTON     CLOUDY    50  36  57 NW9       29.92R
WHITEVILLE     CLOUDY    56  38  50 SW6       29.92S

$$

AMZ130-135-150-152-154-156-158-170-250-252-270-ANZ085-086-088-633-658-670-152300-
MARINE OBSERVATIONS

STATION/POSITION TIME  TEMP    WIND        PRES    WAVE   SWELL
                       AIR SEA DIR/SP/G            HT/PER HT/PER
                 (UTC) (F)     (DEG/KT/KT) (MB)    (FT/S) (FT/S)
CHESAPEAKE LIGHT NOT AVBL
64 E VA BEACH    2150   57 60  250/ 25/ 29 1009.1    5/ 4   2/ 8
DUCK             2148   51 54  290/ 16/ 20 1010.8
2 E DUCK         2130      55                N/A     3/ 5
OREGON INLET     2148          220/ 11/ 12   N/A
13E OREGON INLT  2148      64                N/A     3/ 6   2/ 6
HATTERAS CG      2148   56 55  240/ 12/ 18 1011.7
DIAMOND BUOY     2150   63 73  240/ 25/ 31 1011.7    7/ 6
CAPE LOOKOUT     2200          240/ 11/ 14 1013.1
BEAUFORT LAB     2148   55 51  240/  4/ 10 1012.7
30 SE NEW RVR IN 2108   60 65  240/ 17/ 23 1012.7
30 SE NEW RVR IN 2130      65                N/A     5/ 4
27 SE WRIGHTSVLE 2108   59 64  250/ 21/ 29 1013.5
5 SE WRIGHTSVLE  2108   57 56  240/ 10/ 14 1012.8
225 S CAPE HAT   2150   72 74  270/ 16/ 19 1014.7    5/ 7   2/11
41 SE CHARLESTON 2150   63 73  260/ 23/ 27 1015.0    5/ 6

$$




USA.gov is the U.S. government's official web portal to all federal, state and local government web resources and services.